sat.trackr.live / text

‹ back to catalog

KUIPER-00598

NORAD 69768 · 2026-151F

PAYLOAD ACTIVE UNKNOWN

§ Identity

Operator
Country
US
Launch date
2026-07-02
Launch site
AFETR
Launch vehicle
Mass (kg)
RCS (m²)

External: N2YO · Heavens-Above · Gunter

§ Orbital elements

Epoch: 2026-09-20T04:58:02.302176Z

Period
97.30 min
Inclination
51.8970°
Eccentricity
0.0000738
Mean motion
14.79940351 rev/d
Perigee alt
629.0 km
Apogee alt
630.0 km
Semi-major
7,007.6 km
B*
-4.8888e-4
RAAN
227.9926°
Arg perigee
97.9639°
Mean anomaly
262.1407°
Rev number
1,216

§ Raw data

KUIPER-005981 69768U 26151F   26263.20697109 -.00003947  00000+0 -48888-3 0  99972 69768  51.8970 227.9926 0000738  97.9639 262.1407 14.79940351 12161

JSON: /api/v1/satellites/69768 · /tle

For live sub-satellite position, see the globe view (requires WebGL).

§ Visibility from observer

Set your observer location to see the next 7 days of passes ≥ 10°. The values pass through the URL so the page stays shareable.

No JS? Fill the form by hand. The geolocation button needs JavaScript.